Regional Weather Roundup
Issued by NWS

Home | Current Version | Previous Version | Text Only | Print | Product List | Glossary On
Versions: 1 2 3 4 5 6 7 8 9 10 11 12 13 14 15 16 17 18 19 20 21 22 23 24 25 26 27 28 29 30 31 32 33 34 35 36 37 38 39 40 41 42 43 44 45 46 47 48 49 50
000
ASCA42 TJSJ 270311
RWRPR
PUERTO RICO/U.S. VIRGIN ISLANDS HOURLY WEATHER ROUNDUP
NATIONAL WEATHER SERVICE SAN JUAN PR
1100 PM AST MON JAN 26 2015

PRZ001-004-270400-
PUERTO RICO

CITY           SKY/WX    TMP DP  RH WIND       PRES   REMARKS
SAN JUAN LMM   PTCLDY    77  72  83 CALM      30.03S
PONCE          MOCLDY    77  70  78 CALM      29.98
CEIBA          MOCLDY    77  72  83 S3        30.06S
$$

PRZ006-007-270400-
U.S. VIRGIN ISLANDS

CITY           SKY/WX    TMP DP  RH WIND       PRES   REMARKS
CHARLOTTE AMA  PTCLDY    77  70  78 E10       30.03S
CHRISTIANSTED  PTCLDY    79  70  73 E8        30.04
$$

HOURLY WEATHER ROUNDUP FOR THE NEWS MEDIA

CITY           SKY/WX    TMP DP  RH WIND       PRES   REMARKS
MIAMI          PTCLDY    63  50  62 W10       29.98R
ORLANDO        CLEAR     53  44  71 W12       29.95R
NEW YORK       LGT SNOW  27  22  81 N24G36    29.74F WCI  12
NEWARK         LGT SNOW  25  21  85 N21G30    29.76F FOG     WCI  11
CHICAGO        LGT SNOW  25  23  92 S5        29.90S FOG     WCI  19
HARTFORD       LGT SNOW  29  28  96 N22G40    29.74F VSB 1   WCI  15
BOSTON         LGT SNOW  27  25  92 NE25G37   29.91F VSB 3/4 WCI  12
DALLAS         PTCLDY    62  38  40 SW3       30.07S
PHILADELPHIA   LGT SNOW  29  22  75 NE24G31   29.73S WCI  15


USA.gov is the U.S. government's official web portal to all federal, state and local government web resources and services.